Regional Weather Roundup
Issued by NWS Bismarck, ND

Home | Current Version | Previous Version | Text Only | Print | Product List | Glossary On
Versions: 1 2 3 4 5 6 7 8 9 10 11 12 13 14 15 16 17 18 19 20 21 22 23 24 25 26 27 28 29 30 31 32 33 34 35 36 37 38 39 40 41 42 43 44 45 46 47 48 49 50
000
ASUS43 KBIS 011510
RWRBIS

NWR BROADCAST TEXT
NATIONAL WEATHER SERVICE BISMARCK ND
900 AM CST SUN MAR 01 2015

NOTE: "FAIR" INDICATES FEW OR NO CLOUDS BELOW 12,000 FEET WITH NO
SIGNIFICANT WEATHER AND/OR OBSTRUCTIONS TO VISIBILITY.


CITY           SKY/WX    TMP DP  RH WIND       PRES   REMARKS
WILLISTON      CLOUDY    11   7  84 W6        30.23R WCI   1
MINOT          MOSUNNY   10   4  76 W15       30.17R WCI  -7
MINOT AFB      SUNNY      9   6  87 NW17      30.18R WCI -10
BISMARCK       CLOUDY    14   8  77 CALM      30.21R
DICKINSON      SUNNY     17  12  80 W15       30.16R WCI   2
GARRISON         N/A     13   8  81 NW18      30.17R WCI  -4
HETTINGER ARPT SUNNY     15  10  80 W13       30.20R WCI   1
JAMESTOWN      MOSUNNY   11   3  70 W14       30.16R WCI  -5
BEACH          FLURRIES  16  16 100 W8        30.22R WCI   5
CARRINGTON     FAIR       9   5  85 MISG      30.16R
CROSBY         FLURRIES   9   7  92 NW13      30.22R WCI  -7
HARVEY         FAIR       9   5  85 W13       30.16R WCI  -7
HAZEN          FLURRIES  16  10  79 W8        30.21R WCI   5
LINTON         LGT SNOW  10  10 100 W7        30.21R WCI   0
MANDAN         FAIR      16  10  79 W14G21    30.19R WCI   1
OAKES            N/A      7   3  85 SW12      30.22R WCI  -9
RUGBY          FAIR       1   0  92 NW14      30.15R WCI -17
TIOGA          LGT SNOW  10  10 100 NW10      30.22R WCI  -3
WATFORD CITY   LGT SNOW  16  12  86 NW9       30.20R WCI   4
$$

CITY           SKY/WX    TMP DP  RH WIND       PRES   REMARKS
GRAND FORKS    PTSUNNY    8   0  69 W6        30.16R WCI  -2
GRAND FORKS AF NOT AVBL
DEVILS LAKE    MOSUNNY    9   1  72 W13       30.13R WCI  -7
FARGO          CLOUDY     8   1  73 SW9       30.21R WCI  -5
CANDO          FAIR       1   0  92 W10       30.14R WCI -14
CAVALIER       LGT SNOW  10   5  79 NW10      30.14R WCI  -3
GWINNER        SUNNY     12   5  73 W14       30.22S WCI  -3
ROLLA          FLURRIES   9   5  85 NW21      30.10R WCI -11
WALHALLA       LGT SNOW   9   5  85 W9        30.15R WCI  -5
$$

CITY           SKY/WX    TMP DP  RH WIND       PRES   REMARKS
ABERDEEN       MOSUNNY   12   5  73 SW10      30.26R WCI  -1
MOBRIDGE       LGT SNOW  16  10  77 W6        30.22R WCI   7
BUFFALO          N/A     15  10  80 W14       30.14R WCI   0
RAPID CITY     SUNNY     14   9  80 N3        30.24R
GLASGOW        CLOUDY    16  11  80 W9        30.27R WCI   4
SIDNEY         SUNNY     18  12  79 W9        30.27R WCI   6
WOLF POINT     PTSUNNY   16  11  80 W6        30.28R WCI   7
GLENDIVE       SUNNY     18  14  86 W15       30.24R WCI   3
MILES CITY     MOSUNNY   18  12  77 NW14      30.28R WCI   4
BAKER          SNOW      17  13  84 W15       30.22R VSB 1/2 WCI   2
$$

CITY           SKY/WX    TMP DP  RH WIND       PRES   REMARKS
BILLINGS       SUNNY     14   4  64 SW14      30.28R WCI  -1
GREAT FALLS    CLEAR     16   9  74 S12       30.22F WCI   3
REGINA         PTSUNNY    3   1  92 W6        30.22R WCI  -8
ESTEVAN        MOSUNNY    1  -2  85 W12       30.20R WCI -15
$$



USA.gov is the U.S. government's official web portal to all federal, state and local government web resources and services.